Location: Maccacari
(45.1333°N, 11.1333°E)
Time: 11:08:05
(UTC+00:00)

Vanguard 2 - Pass Details

Date: 26 January 2021
Orbit: 552 x 2938 km, 32.9° (Epoch: 24 February)

Event Time Altitude Azimuth Distance (km) Brightness Sun altitude
Rises 15:10:41 0° 224° (SW) 2,806 12.6 8.7°
Reaches altitude 10° 15:14:10 10° 193° (SSW) 1,818 10.4 8.3°
Maximum altitude 15:15:52 12° 167° (SSE) 1,671 9.7 8.0°
Drops below altitude 10° 15:17:35 10° 141° (SE) 1,852 9.5 7.8°
Sets 15:21:13 0° 110° (ESE) 2,921 10.2 7.3°
